This demonstration page uses our WeatherBlox Daily Observations layout. Learn more.

Left ArrowRight Arrow

40.92945, -100.16068

Hourly Observations for January 26, 2021

Temp ( °F °C ) Dew Point ( °F °C ) Humidity (%) Winds ( mph kmh ) Pressure ( in mb ) Visibility ( mi km ) Precip ( " mm )
12:15 am 00:15 Cloudy with Light Snow 19 -7.5 15 -9.6 85 85 NNE 13 20 30.03 1017 5 8.0467 0 0
12:35 am 00:35 Cloudy with Light Snow 18 -7.6 14 -9.9 84 84 NNE 13 20 30.04 1017 7 11.26538 0 0
12:55 am 00:55 Cloudy with Light Snow 18 -7.6 14 -9.8 84 84 N 14 22 30.04 1017 7 11.26538 0 0
1:15 am 01:15 Cloudy with Light Snow 18 -7.7 14 -10 84 84 NNE 14 22 30.06 1018 7 11.26538 0 0
1:35 am 01:35 Cloudy 18 -7.8 13 -10.3 82 82 NNE 12 19 30.06 1018 10 16.0934 0 0
1:55 am 01:55 Cloudy with Light Snow 18 -7.9 13 -10.5 82 82 NNE 13 20 30.07 1018 5 8.0467 0 0
2:15 am 02:15 Cloudy with Light Snow 18 -8 13 -10.5 82 82 NNE 10 17 30.08 1019 5 8.0467 0 0
2:35 am 02:35 Cloudy with Light Snow 18 -8 14 -10.2 84 84 NNE 12 19 30.08 1019 3 4.82802 0 0
2:55 am 02:55 Cloudy with Light Snow 18 -8 14 -10.2 84 84 NNE 15 24 30.1 1019 2.5 4.02335 0 0
3:15 am 03:15 Cloudy with Light Snow 17 -8.3 13 -10.7 83 83 NNE 10 17 30.11 1020 4 6.43736 0 0
3:35 am 03:35 Cloudy with Light Snow 17 -8.3 13 -10.5 84 84 NNE 12 19 30.11 1020 5 8.0467 0 0
3:55 am 03:55 Cloudy with Light Snow 17 -8.5 13 -10.7 84 84 NNE 9 15 30.12 1020 5 8.0467 0 0
4:15 am 04:15 Cloudy with Light Snow 16 -8.8 12 -11 84 84 NNE 9 15 30.14 1021 5 8.0467 0 0
4:35 am 04:35 Cloudy with Light Snow 15 -9.2 11 -11.6 83 83 N 13 20 30.14 1021 5 8.0467 0 0
4:55 am 04:55 Cloudy with Light Snow 15 -9.5 10 -12 82 82 NNE 10 17 30.14 1021 7 11.26538 0 0
5:15 am 05:15 Cloudy with Light Snow 15 -9.6 10 -12 83 83 NNE 6 9 30.16 1021 7 11.26538 0 0
5:35 am 05:35 Cloudy with Light Snow 15 -9.7 10 -12 84 84 N 8 13 30.17 1022 7 11.26538 0 0
5:55 am 05:55 Cloudy with Light Snow 14 -10 10 -12.2 84 84 NNE 10 17 30.17 1022 7 11.26538 0 0
6:15 am 06:15 Cloudy 14 -10 10 -12.3 83 83 NNE 10 17 30.17 1022 10 16.0934 0 0
6:35 am 06:35 Cloudy 14 -10.2 9 -12.7 82 82 NNE 8 13 30.18 1022 10 16.0934 0 0
6:55 am 06:55 Cloudy with Light Snow 13 -10.4 9 -12.7 83 83 N 6 9 30.19 1023 5 8.0467 0 0
7:15 am 07:15 Cloudy 13 -10.5 9 -12.8 83 83 N 7 11 30.21 1023 10 16.0934 0 0
7:35 am 07:35 Cloudy with Light Snow 13 -10.6 9 -13 83 83 NNE 8 13 30.21 1023 5 8.0467 0 0
7:55 am 07:55 Cloudy with Light Snow 12 -11 8 -13.3 83 83 NNE 7 11 30.21 1023 5 8.0467 0 0
8:15 am 08:15 Cloudy with Light Snow 11 -11.4 8 -13.6 84 84 N 5 7 30.22 1023 5 8.0467 0 0
8:35 am 08:35 Mostly Cloudy with Light Snow 11 -11.9 7 -14 85 85 NNE 6 9 30.23 1024 10 16.0934 0 0
8:55 am 08:55 Sunny 11 -11.5 7 -13.7 84 84 NNE 7 11 30.23 1024 10 16.0934 0 0
9:15 am 09:15 Sunny 11 -11.4 7 -13.8 83 83 NNE 7 11 30.24 1024 10 16.0934 0 0
9:35 am 09:35 Sunny 11 -11.7 6 -14.2 82 82 N 5 7 30.25 1024 10 16.0934 0 0
9:55 am 09:55 Sunny 12 -11.3 7 -14 81 81 N 6 9 30.25 1025 10 16.0934 0 0
10:15 am 10:15 Sunny 13 -10.7 7 -13.7 79 79 NNE 8 13 30.25 1024 10 16.0934 0 0
10:35 am 10:35 Sunny 14 -10.2 8 -13.5 77 77 N 6 9 30.27 1025 10 16.0934 0 0
10:55 am 10:55 Sunny 14 -9.9 8 -13.2 77 77 NE 8 13 30.27 1025 10 16.0934 0 0
11:15 am 11:15 Sunny 15 -9.6 8 -13.1 76 76 NE 10 17 30.27 1025 10 16.0934 0 0
11:35 am 11:35 Sunny 15 -9.5 9 -13 76 76 NE 9 15 30.28 1025 10 16.0934 0 0
11:55 am 11:55 Partly Cloudy 15 -9.4 9 -13 75 75 NE 8 13 30.28 1026 10 16.0934 0 0
12:15 pm 12:15 Mostly Cloudy 16 -9.1 9 -12.6 76 76 NE 7 11 30.28 1025 10 16.0934 0 0
12:35 pm 12:35 Cloudy 16 -9 9 -12.6 75 75 NE 8 13 30.26 1025 10 16.0934 0 0
12:55 pm 12:55 Partly Cloudy 16 -9 10 -12.5 76 76 NE 10 17 30.24 1024 10 16.0934 0 0
1:15 pm 13:15 Sunny 16 -8.7 10 -12.1 77 77 NE 8 13 30.24 1024 10 16.0934 0 0
1:35 pm 13:35 Mostly Cloudy 17 -8.3 11 -11.6 77 77 ENE 7 11 30.24 1024 10 16.0934 0 0
1:55 pm 13:55 Cloudy 17 -8.2 11 -11.4 78 78 ENE 8 13 30.23 1024 10 16.0934 0 0
2:15 pm 14:15 Cloudy 17 -8.1 12 -11.2 79 79 ENE 8 13 30.22 1023 10 16.0934 0 0
2:35 pm 14:35 Cloudy 18 -8 12 -10.9 80 80 ENE 8 13 30.22 1023 10 16.0934 0 0
2:55 pm 14:55 Cloudy 18 -8 12 -11 79 79 ENE 9 15 30.22 1023 10 16.0934 0 0
3:15 pm 15:15 Cloudy 18 -7.7 13 -10.6 80 80 ENE 8 13 30.23 1024 10 16.0934 0 0
3:35 pm 15:35 Cloudy 18 -7.7 13 -10.6 80 80 NE 9 15 30.23 1024 10 16.0934 0 0
3:55 pm 15:55 Cloudy 18 -7.7 13 -10.6 80 80 ENE 8 13 30.24 1024 10 16.0934 0 0
4:15 pm 16:15 Cloudy 18 -7.7 13 -10.5 81 81 NE 9 15 30.24 1024 10 16.0934 0 0
4:30 pm 16:30 Cloudy 18 -7.9 13 -10.7 81 81 ENE 8 13 30.24 1024 10 16.0934 0 0
4:55 pm 16:55 Cloudy 18 -7.9 13 -10.5 82 82 NE 7 11 30.25 1024 10 16.0934 0 0
5:15 pm 17:15 Cloudy 18 -8 13 -10.5 82 82 NE 10 17 30.24 1024 10 16.0934 0 0
5:35 pm 17:35 Cloudy 18 -8 13 -10.3 84 84 NE 10 17 30.24 1024 10 16.0934 0 0
5:55 pm 17:55 Cloudy 18 -8 13 -10.3 84 84 NE 9 15 30.24 1024 10 16.0934 0 0
6:15 pm 18:15 Cloudy 18 -8 13 -10.3 84 84 NE 9 15 30.24 1024 10 16.0934 0 0
6:35 pm 18:35 Cloudy 18 -8 14 -10.1 85 85 NE 10 17 30.25 1024 10 16.0934 0 0
6:55 pm 18:55 Cloudy 18 -8 14 -10.1 85 85 NE 12 19 30.26 1025 10 16.0934 0 0
7:15 pm 19:15 Cloudy 18 -8 14 -10.2 84 84 NE 9 15 30.26 1025 10 16.0934 0 0
7:35 pm 19:35 Cloudy 18 -8 14 -10.2 84 84 NE 9 15 30.28 1025 10 16.0934 0 0
7:55 pm 19:55 Cloudy 18 -8 14 -10.2 84 84 NE 9 15 30.28 1025 10 16.0934 0 0
8:15 pm 20:15 Cloudy 18 -8 14 -10.2 84 84 NE 9 15 30.28 1025 10 16.0934 0 0
8:35 pm 20:35 Cloudy 18 -8 14 -10.1 85 85 NE 9 15 30.29 1026 10 16.0934 0 0
8:55 pm 20:55 Cloudy 18 -8 14 -10.2 84 84 ENE 6 9 30.3 1026 10 16.0934 0 0
9:15 pm 21:15 Cloudy 17 -8.1 13 -10.5 83 83 ENE 8 13 30.31 1026 10 16.0934 0 0
9:35 pm 21:35 Cloudy with Light Snow 17 -8.2 13 -10.5 84 84 ENE 8 13 30.32 1027 10 16.0934 0 0
9:55 pm 21:55 Cloudy with Light Snow 17 -8.2 13 -10.5 84 84 ENE 9 15 30.32 1027 10 16.0934 0 0
10:15 pm 22:15 Cloudy with Light Snow 17 -8.3 13 -10.5 84 84 E 7 11 30.32 1027 7 11.26538 0 0
10:35 pm 22:35 Cloudy with Light Snow 17 -8.6 12 -11 83 83 NE 9 15 30.33 1027 1.75 2.816345 0 0
10:55 pm 22:55 Cloudy with Light Snow 16 -8.8 13 -10.6 87 87 ENE 8 13 30.33 1027 1.5 2.41401 0 0
11:15 pm 23:15 Cloudy with Light Snow 16 -8.8 13 -10.5 88 88 ENE 6 9 30.33 1027 3 4.82802 0 0
11:35 pm 23:35 Cloudy with Light Snow 16 -8.7 13 -10.5 87 87 ENE 10 17 30.34 1027 3 4.82802 0 0
11:55 pm 23:55 Cloudy with Light Snow 16 -8.7 13 -10.5 87 87 NE 10 17 30.34 1027 2 3.21868 0 0

Powered by AerisWeather